Vertical_Velocity
-2 -2 -1 -3 1 1 2 -0 -1 -2 -0 -0 -1 2 6 1 -2 -1 9 6 -1 -1 -0 -5 -2 -9 1 5 -2 -0 0 -0 0 1 -1 -0 -3 -4 -1 -1 -1 1 -1
1 -1 2 3 2 2 -1 -0 0 3 4 3 -1 -2 -2 -1 1 1 -1 -2 -2 -1 1 7 9 0 -3 -3 -2 -1 -3 0 -2 1 2 2 -2 -5 -1 -0 -1 1 3
-2 3 2 0 1 0 1 0 1 1 0 -1 -1 -0 0 1 2 2 1 1 1 1 -1 -4 -9 -4 4 2 -1 -5 -1 1 -1 -0 2 -2 -3 -2 -2 -2 -0 3 2
2 -1 2 -1 -2 -1 -0 -1 1 -1 0 3 2 2 3 2 2 2 1 1 3 1 1 5 2 3 0 -4 0 1 -0 -0 1 -0 5 -3 -3 -4 -1 1 2 4 1
1 2 2 -0 -1 2 1 1 0 1 2 2 1 2 1 1 1 2 1 1 -1 -0 2 3 4 3 9 -2 -2 0 -2 2 -0 -2 1 -5 -1 -4 -3 -0 2 3 16
1 1 1 1 -0 1 0 -2 -0 1 2 2 2 2 3 2 3 3 4 0 1 1 -1 2 4 1 -0 -4 1 -1 -0 -1 2 -3 0 -4 -0 -2 -2 2 7 11 8
4 2 5 -1 0 -0 -2 -1 1 1 3 2 3 1 1 3 1 3 3 2 -0 0 -1 0 2 3 6 1 -1 2 2 -6 1 -5 -6 -2 -1 -1 3 2 7 9 3
3 7 -0 0 -1 0 -1 1 2 -0 1 2 4 0 -2 3 0 1 2 2 2 2 -1 -2 -1 4 3 -4 -4 -2 -1 -3 3 0 2 -1 3 -1 1 -9 5 2 2
2 -0 -2 1 1 -0 -1 -0 2 -1 0 6 -1 1 0 2 1 1 -1 0 3 1 3 3 -1 -1 -1 -2 -1 -3 -5 3 -1 -1 -1 -1 2 -1 -2 0 15 -9 8
-3 6 1 1 1 -1 2 -1 2 2 2 6 3 1 5 1 4 1 0 -2 -1 2 1 1 -2 -2 -3 1 -1 -2 -2 -9 -3 -1 -1 3 4 0 -16 10 21 -18 -23
4 6 -3 1 -0 2 2 -2 2 1 -0 5 5 1 2 1 5 3 -0 -2 -3 -4 -1 1 1 0 -0 -3 -2 -3 -5 2 1 2 3 2 1 0 3 18 -3 16 -15
5 4 -3 3 -3 1 1 1 1 -2 -0 1 2 5 3 3 -1 2 2 -4 -1 -2 -0 -0 0 2 5 5 -1 1 3 0 -1 -1 -0 -2 -2 3 5 4 -3 -3 14
7 0 3 4 -3 -0 -0 1 -1 -0 -2 -2 1 4 2 -1 1 -1 2 3 -2 -4 -2 0 1 0 -0 3 6 4 3 2 -5 -1 -1 3 -3 -6 -1 8 12 12 3
-5 2 4 0 -3 -4 2 2 -0 2 1 -1 -2 0 1 -0 -1 3 1 2 1 1 3 2 -0 -1 -1 -1 0 3 2 0 -3 2 2 7 1 8 1 4 -1 3 2
-0 -3 5 4 -1 -2 -5 -4 -0 0 3 -3 -0 -1 -2 0 -3 -2 -1 -3 -2 1 0 2 -1 -2 -2 -0 2 4 2 2 0 10 1 -4 2 -6 -1 3 6 -2 -11
-2 -6 -2 6 3 -2 -3 -1 6 -0 1 2 1 -2 4 -1 0 -3 -2 -7 -7 -1 -2 -4 -4 -2 -1 1 2 4 2 1 -1 1 4 -3 -3 -1 -0 4 0 6 -4
-1 -2 -2 -1 2 1 -2 -2 2 -4 5 3 1 4 2 -2 6 -2 -4 -2 -0 -1 -6 -2 -3 1 1 1 -1 2 -0 3 6 6 1 3 5 7 6 3 6 3 -1
3 2 -1 -2 1 2 -1 -3 0 4 2 -1 3 1 5 2 -0 -0 3 -2 -1 0 -2 -1 -3 -2 0 1 3 -2 1 1 -1 -1 -2 1 4 2 -5 -3 -2 -3 -4
1 1 2 -0 -1 1 2 0 -3 -3 -2 3 6 -0 5 6 1 -0 2 -6 -4 -5 0 1 -2 -1 0 0 -0 -1 1 -0 3 -2 -2 1 0 3 -1 -1 0 3 1
0 2 2 2 0 -1 1 1 0 -3 -1 1 -0 -4 2 13 -0 5 5 1 2 -2 0 -1 0 3 -5 0 -3 -4 -4 -3 -1 -1 -1 0 -0 3 -1 -2 3 -0 0
-2 0 2 -1 -1 -1 -0 -1 -0 -1 -2 -0 -2 1 3 1 0 -2 -2 5 -2 1 1 -0 -5 -3 -0 -0 4 0 0 1 1 4 2 3 3 5 3 2 1 -3 -3
-0 -1 -1 -2 1 -1 -2 -0 -0 -1 -0 -1 -1 2 3 -2 -2 -3 -3 0 2 3 1 3 -0 1 -1 3 3 1 -0 -2 -0 0 -0 1 1 -0 -0 -2 1 1 -1
-1 -0 -0 -2 -2 1 1 1 -0 0 1 2 4 1 -0 -2 1 0 -1 -3 -3 -2 -1 -1 -1 -1 1 -1 -4 -2 1 -3 -2 0 -3 -6 -5 -2 -2 -4 -2 -0 1
-2 -2 -1 -0 -1 -1 -1 -1 -0 1 0 -0 1 1 1 -0 -2 -2 -1 1 1 0 -2 -1 -0 -1 -1 -0 1 1 2 1 2 3 5 2 -3 -3 -3 -1 0 2 2
-1 -1 -2 -2 -1 -1 -0 -1 -2 -2 -1 -0 0 0 0 -0 -1 -1 0 1 -0 0 1 2 0 -0 1 1 1 1 -3 -4 -3 -3 -2 -0 -1 -1 -1 -1 -1 0 1
1 0 -0 -1 -1 -1 -1 -1 -1 -0 -1 -1 -1 -0 0 1 0 1 0 1 1 -0 -1 -1 -1 0 0 -1 0 -0 -1 -2 -1 -1 -1 -2 -3 -4 -2 -1 -1 -1 -2
Height
1482 1474 1466 1458 1448 1439 1429 1421 1414 1408 1403 1399 1395 1392 1392 1392 1392 1392 1393 1397 1400 1404 1409 1414 1422 1430 1439 1447 1454 1463 1469 1474 1478 1481 1485 1489 1493 1496 1499 1502 1505 1509 1515
1478 1470 1462 1452 1441 1431 1422 1413 1405 1399 1395 1392 1389 1387 1385 1384 1384 1384 1386 1388 1393 1397 1402 1407 1415 1423 1432 1441 1448 1457 1465 1470 1477 1481 1485 1489 1493 1496 1498 1502 1505 1510 1516
1475 1466 1457 1446 1436 1426 1415 1406 1399 1394 1391 1387 1384 1381 1379 1378 1377 1378 1379 1382 1386 1391 1395 1402 1410 1418 1427 1434 1443 1452 1461 1468 1474 1480 1484 1488 1492 1496 1498 1501 1505 1510 1517
1473 1463 1454 1443 1430 1420 1411 1404 1398 1393 1388 1384 1380 1376 1374 1372 1372 1372 1375 1378 1383 1387 1394 1400 1407 1416 1422 1430 1439 1448 1457 1466 1472 1479 1484 1489 1492 1496 1499 1503 1507 1512 1520
1471 1462 1450 1439 1428 1419 1411 1403 1397 1392 1387 1382 1377 1372 1369 1366 1366 1368 1371 1375 1381 1387 1393 1399 1406 1414 1422 1430 1439 1446 1455 1464 1471 1478 1484 1489 1493 1496 1499 1502 1507 1515 1522
1471 1459 1449 1437 1426 1417 1410 1404 1398 1392 1387 1381 1376 1370 1366 1362 1363 1365 1369 1374 1380 1386 1393 1399 1407 1414 1423 1432 1440 1447 1456 1464 1470 1477 1484 1489 1493 1497 1500 1504 1508 1514 1523
1468 1459 1448 1437 1425 1417 1411 1405 1399 1394 1388 1382 1376 1371 1367 1363 1362 1365 1370 1376 1382 1388 1395 1401 1408 1416 1425 1433 1441 1450 1458 1465 1473 1479 1485 1489 1495 1498 1501 1505 1510 1513 1518
1468 1459 1449 1436 1426 1419 1414 1407 1402 1397 1391 1385 1381 1376 1371 1369 1368 1370 1374 1380 1386 1393 1399 1405 1411 1418 1427 1435 1443 1451 1460 1469 1476 1481 1487 1491 1497 1501 1505 1509 1511 1515 1522
1470 1460 1450 1437 1428 1423 1417 1412 1407 1402 1396 1391 1387 1382 1378 1377 1377 1378 1382 1387 1392 1399 1406 1411 1417 1423 1430 1437 1444 1452 1462 1471 1477 1483 1488 1492 1498 1503 1508 1511 1515 1519 1524
1473 1463 1453 1440 1432 1427 1422 1417 1413 1408 1403 1399 1394 1390 1388 1386 1387 1388 1391 1395 1400 1405 1413 1419 1426 1430 1436 1442 1449 1457 1464 1473 1479 1485 1491 1497 1501 1508 1512 1517 1520 1523 1529
1479 1468 1457 1445 1437 1433 1428 1423 1420 1415 1411 1406 1402 1400 1398 1398 1399 1400 1402 1405 1409 1413 1419 1425 1431 1436 1441 1449 1456 1464 1472 1477 1483 1489 1494 1499 1503 1509 1515 1520 1528 1534 1538
1484 1473 1461 1452 1444 1439 1434 1431 1428 1423 1419 1414 1413 1410 1410 1410 1411 1411 1412 1415 1418 1421 1425 1431 1437 1444 1450 1457 1464 1471 1478 1484 1489 1494 1498 1503 1508 1513 1519 1525 1531 1538 1545
1490 1478 1467 1459 1451 1446 1441 1438 1436 1432 1428 1424 1422 1421 1420 1422 1421 1423 1423 1424 1426 1429 1433 1439 1444 1451 1458 1465 1472 1479 1485 1490 1494 1498 1503 1508 1513 1519 1526 1530 1535 1543 1550
1497 1486 1476 1464 1459 1453 1450 1447 1444 1441 1438 1435 1432 1432 1432 1432 1433 1434 1435 1436 1438 1440 1444 1450 1455 1461 1467 1472 1479 1485 1491 1495 1501 1504 1508 1513 1518 1523 1529 1535 1541 1548 1555
1504 1495 1484 1474 1467 1462 1458 1455 1453 1451 1449 1446 1445 1443 1443 1443 1447 1447 1447 1448 1450 1452 1455 1460 1465 1471 1476 1481 1486 1491 1496 1502 1506 1510 1514 1518 1523 1529 1535 1541 1548 1554 1560
1511 1504 1494 1485 1476 1471 1467 1464 1463 1461 1460 1457 1456 1455 1454 1456 1459 1461 1463 1463 1464 1467 1469 1472 1476 1481 1485 1489 1493 1498 1503 1508 1512 1516 1521 1527 1531 1536 1540 1546 1553 1560 1565
1519 1514 1506 1498 1488 1481 1476 1473 1471 1472 1470 1468 1467 1467 1467 1466 1470 1472 1473 1473 1476 1479 1480 1484 1487 1491 1494 1498 1501 1505 1509 1514 1519 1524 1529 1534 1538 1542 1547 1553 1559 1566 1571
1528 1522 1516 1510 1502 1494 1488 1483 1481 1479 1477 1477 1477 1477 1477 1479 1479 1481 1484 1485 1486 1490 1490 1492 1495 1499 1502 1505 1508 1512 1516 1520 1525 1530 1534 1538 1543 1548 1553 1559 1565 1571 1576
1534 1530 1526 1521 1515 1508 1501 1495 1491 1488 1486 1486 1486 1486 1486 1488 1488 1489 1492 1492 1494 1496 1498 1501 1503 1507 1510 1512 1515 1519 1523 1526 1531 1535 1539 1544 1548 1554 1559 1565 1570 1575 1580
1541 1538 1535 1531 1526 1520 1514 1509 1503 1499 1496 1495 1493 1493 1494 1496 1497 1498 1499 1501 1502 1505 1507 1509 1511 1514 1517 1520 1523 1526 1530 1534 1537 1541 1546 1551 1556 1562 1566 1571 1575 1579 1583
1547 1545 1542 1539 1535 1531 1527 1522 1517 1512 1509 1508 1506 1506 1506 1504 1504 1506 1507 1509 1510 1512 1514 1516 1518 1521 1524 1526 1529 1533 1536 1539 1544 1548 1554 1559 1563 1567 1571 1575 1579 1584 1588
1552 1551 1548 1545 1543 1541 1537 1535 1531 1527 1523 1521 1519 1519 1518 1517 1517 1518 1518 1518 1519 1521 1522 1524 1526 1529 1531 1533 1536 1539 1543 1547 1552 1556 1561 1565 1569 1573 1577 1580 1584 1587 1591
1556 1555 1554 1552 1550 1549 1547 1545 1542 1540 1537 1535 1533 1531 1530 1528 1528 1528 1529 1530 1531 1532 1534 1536 1539 1540 1543 1546 1548 1550 1554 1558 1561 1564 1567 1571 1575 1578 1582 1584 1587 1590 1592
1560 1559 1558 1557 1557 1555 1554 1552 1551 1549 1548 1546 1545 1543 1542 1541 1540 1540 1540 1540 1541 1542 1543 1545 1546 1549 1551 1554 1557 1560 1563 1566 1568 1571 1574 1577 1580 1583 1586 1589 1591 1593 1595
1563 1563 1562 1561 1560 1560 1560 1559 1558 1557 1556 1555 1554 1553 1552 1552 1551 1551 1551 1551 1552 1553 1553 1554 1555 1557 1559 1561 1563 1566 1569 1571 1573 1576 1579 1581 1583 1585 1588 1591 1594 1596 1598
1565 1565 1564 1564 1564 1563 1563 1563 1563 1562 1562 1562 1562 1561 1561 1561 1560 1561 1561 1561 1562 1562 1562 1563 1564 1566 1568 1569 1571 1573 1575 1577 1579 1582 1584 1586 1588 1590 1593 1595 1596 1598 1600